EW8805 Weather Reports


Display with metric or nautical units.
time (UTC)temp
F
wind
direction
speed
MPH
gust
MPH
rain 1hr
in
rain 24hr
in
rain mn
in
humidity
%
barometer
mb
20180919220107 72 30 2.0 2.0 0.00 0.04 0.00 66 1021.8
20180919215524 73 29 0.0 2.0 0.00 0.04 0.01 63 1021.7
20180919215028 73 20 0.0 1.0 0.00 0.04 0.01 62 1021.7
20180919214532 74 21 0.0 1.0 0.00 0.04 0.01 60 1021.8
20180919214036 74 22 0.0 1.0 0.00 0.04 0.01 59 1021.7
20180919213528 74 324 0.0 1.0 0.00 0.04 0.01 57 1021.7
20180919213029 74 325 0.0 1.0 0.00 0.04 0.01 57 1021.7
20180919212518 73 325 0.0 2.0 0.00 0.04 0.01 59 1021.7
20180919212022 74 313 0.0 2.0 0.00 0.04 0.01 60 1021.7
20180919211533 74 326 1.0 2.0 0.00 0.04 0.01 59 1021.7
20180919211034 74 348 0.0 2.0 0.00 0.04 0.01 58 1021.7
20180919210524 75 34 0.0 2.0 0.00 0.04 0.01 58 1021.7
20180919210042 75 33 1.0 2.0 0.00 0.04 0.01 57 1021.6
20180919205523 75 56 1.0 2.0 0.00 0.04 0.01 55 1021.6
20180919205026 76 61 0.0 3.0 0.00 0.04 0.01 56 1021.6
20180919204516 76 50 0.0 3.0 0.00 0.04 0.01 56 1021.6
20180919204024 76 58 2.0 3.0 0.00 0.04 0.01 53 1021.6
20180919203526 76 49 2.0 3.0 0.00 0.04 0.01 52 1021.6
20180919203035 77 46 0.0 1.0 0.00 0.04 0.01 51 1021.7
20180919202530 77 37 0.0 1.0 0.00 0.04 0.01 52 1021.5
20180919202018 76 135 0.0 1.0 0.00 0.04 0.01 55 1021.5
20180919201525 76 136 0.0 1.0 0.00 0.04 0.01 54 1021.4
20180919201028 76 50 0.0 1.0 0.00 0.04 0.01 56 1021.5
20180919200533 76 50 0.0 1.0 0.00 0.04 0.01 56 1021.4
20180919200053 76 50 0.0 1.0 0.00 0.04 0.01 57 1021.3
20180919195536 77 50 0.0 2.0 0.00 0.04 0.01 56 1021.2
20180919195021 77 50 0.0 3.0 0.00 0.04 0.01 56 1021.1
20180919194528 77 46 1.0 3.0 0.00 0.04 0.01 55 1021.1
20180919194016 77 26 0.0 1.0 0.00 0.04 0.01 56 1021.1
20180919193527 77 26 0.0 1.0 0.00 0.04 0.01 55 1020.9
20180919193027 78 26 0.0 1.0 0.00 0.04 0.01 53 1020.8
20180919192519 78 41 0.0 1.0 0.00 0.04 0.01 54 1020.7
20180919192023 78 8 0.0 2.0 0.00 0.04 0.01 54 1020.7
20180919191534 79 19 0.0 3.0 0.00 0.04 0.01 52 1020.6
20180919191035 79 339 1.0 3.0 0.00 0.04 0.01 50 1020.6
20180919190524 79 355 0.0 1.0 0.00 0.04 0.01 51 1020.5
20180919190046 80 358 0.0 2.0 0.00 0.04 0.01 50 1020.5
20180919185526 80 12 1.0 2.0 0.00 0.04 0.01 48 1020.5
20180919185030 80 359 1.0 3.0 0.00 0.04 0.01 47 1020.5
20180919184521 80 3 2.0 4.0 0.00 0.04 0.01 47 1020.4
20180919184025 80 39 2.0 4.0 0.00 0.04 0.01 47 1020.4
20180919183531 81 8 2.0 3.0 0.00 0.04 0.01 47 1020.4
20180919183018 81 354 1.0 1.0 0.00 0.04 0.01 48 1020.4
20180919182532 82 19 0.0 0.0 0.00 0.04 0.01 47 1020.4
20180919182030 82 19 0.0 1.0 0.00 0.04 0.01 43 1020.4
20180919181518 82 18 0.0 1.0 0.00 0.04 0.01 43 1020.4
20180919181023 83 19 0.0 1.0 0.00 0.04 0.01 44 1020.4
20180919180533 83 19 0.0 0.0 0.00 0.04 0.01 41 1020.4
20180919180043 84 19 0.0 0.0 0.00 0.04 0.01 38 1020.4
20180919175527 84 18 0.0 1.0 0.00 0.51 0.01 39 1020.4
20180919175031 85 19 0.0 1.0 0.00 0.51 0.01 39 1020.4
20180919174518 85 19 0.0 1.0 0.00 0.51 0.01 39 1020.4
20180919174022 85 19 0.0 2.0 0.00 0.51 0.01 38 1020.3
20180919173533 85 19 1.0 2.0 0.00 0.51 0.01 37 1020.2
20180919173018 85 6 0.0 1.0 0.00 0.51 0.01 36 1020.2
20180919172526 85 6 0.0 3.0 0.00 0.51 0.01 36 1020.2
20180919172031 85 358 1.0 4.0 0.00 0.51 0.01 36 1020.2
20180919171522 85 11 2.0 4.0 0.00 0.51 0.01 36 1020.2
20180919171024 86 351 1.0 3.0 0.00 0.51 0.01 36 1020.1
20180919170534 86 56 2.0 2.0 0.00 0.51 0.01 35 1020.1
20180919170056 86 20 0.0 3.0 0.00 0.51 0.01 36 1020.1
20180919165523 86 341 2.0 3.0 0.00 0.51 0.01 36 1020.1
20180919165025 86 1 1.0 3.0 0.00 0.51 0.01 36 1020.1
20180919164534 86 46 1.0 3.0 0.00 0.51 0.01 36 1020.0
20180919164017 86 80 0.0 5.0 0.00 0.51 0.01 36 1020.1
20180919163522 86 56 1.0 5.0 0.00 0.51 0.01 36 1020.0
20180919163045 86 3 2.0 3.0 0.00 0.51 0.01 36 1020.0
20180919162533 86 63 1.0 4.0 0.00 0.51 0.01 36 1020.0
20180919162033 86 37 1.0 5.0 0.00 0.51 0.01 36 1019.9
20180919161522 86 4 1.0 5.0 0.00 0.51 0.01 37 1020.0
20180919161027 86 1 2.0 4.0 0.00 0.51 0.01 37 1020.0
20180919160531 86 79 2.0 4.0 0.00 0.51 0.01 37 1020.0
20180919160051 86 53 1.0 3.0 0.00 0.51 0.01 36 1020.0
20180919155518 86 105 0.0 3.0 0.00 0.55 0.01 36 1020.0
20180919155021 86 75 2.0 6.0 0.00 0.55 0.01 36 1020.1
20180919154526 85 37 0.0 6.0 0.00 0.55 0.01 37 1020.1
20180919154031 86 85 2.0 4.0 0.00 0.55 0.01 37 1020.2
20180919153522 86 264 0.0 7.0 0.00 0.55 0.01 38 1020.2
20180919153022 86 60 2.0 7.0 0.00 0.55 0.01 39 1020.2
20180919152534 86 252 0.0 4.0 0.00 0.55 0.01 40 1020.2
20180919152036 85 330 1.0 6.0 0.00 0.55 0.01 41 1020.2
20180919151524 86 75 4.0 6.0 0.00 0.55 0.01 41 1020.3
20180919151022 86 146 1.0 3.0 0.00 0.55 0.01 40 1020.3
20180919150516 85 339 0.0 5.0 0.00 0.55 0.01 41 1020.3
20180919150049 85 65 2.0 6.0 0.00 0.55 0.01 41 1020.4
20180919145530 86 56 3.0 6.0 0.00 0.55 0.01 41 1020.4
20180919145036 85 288 1.0 6.0 0.00 0.55 0.01 41 1020.4
20180919144525 85 58 1.0 8.0 0.00 0.55 0.01 42 1020.4
20180919144030 85 43 5.0 9.0 0.00 0.55 0.01 41 1020.5
20180919143535 85 68 4.0 7.0 0.00 0.55 0.01 41 1020.5
20180919143018 86 58 1.0 4.0 0.00 0.55 0.01 41 1020.5
20180919142525 85 51 0.0 7.0 0.00 0.55 0.01 41 1020.5
20180919142026 85 328 2.0 7.0 0.00 0.55 0.01 42 1020.5
20180919141518 85 19 4.0 7.0 0.00 0.55 0.01 43 1020.5
20180919141026 85 53 2.0 6.0 0.00 0.55 0.01 42 1020.5
20180919140516 85 349 1.0 5.0 0.00 0.55 0.01 42 1020.6
20180919140045 84 22 1.0 6.0 0.00 0.55 0.01 42 1020.6
20180919135530 84 65 3.0 7.0 0.00 0.55 0.01 42 1020.7
20180919135035 84 63 2.0 8.0 0.00 0.55 0.01 41 1020.8
20180919134520 84 13 2.0 8.0 0.00 0.55 0.01 42 1020.9
20180919134033 84 84 3.0 5.0 0.00 0.55 0.01 45 1020.9
20180919133524 83 144 3.0 7.0 0.00 0.55 0.01 44 1021.0
20180919133025 83 103 5.0 7.0 0.00 0.55 0.01 45 1021.1
20180919132533 83 75 4.0 8.0 0.00 0.55 0.01 44 1021.1
20180919132030 83 73 5.0 8.0 0.00 0.55 0.01 43 1021.1
20180919131522 83 108 4.0 9.0 0.00 0.55 0.01 46 1021.2
20180919131022 83 76 4.0 9.0 0.00 0.55 0.01 46 1021.2
20180919130532 83 88 4.0 7.0 0.00 0.55 0.01 47 1021.2
20180919125519 83 101 2.0 5.0 0.00 0.55 0.01 48 1021.4
20180919125029 82 91 2.0 9.0 0.00 0.55 0.01 48 1021.5
20180919124517 82 75 4.0 10.0 0.00 0.55 0.01 48 1021.6
20180919124019 82 51 2.0 7.0 0.00 0.55 0.01 49 1021.6
20180919123526 82 65 5.0 8.0 0.00 0.55 0.01 50 1021.7
20180919123026 81 86 6.0 8.0 0.00 0.55 0.01 49 1021.7
20180919122518 82 64 2.0 7.0 0.00 0.55 0.01 53 1021.7
20180919122016 81 64 5.0 8.0 0.00 0.55 0.01 52 1021.8
20180919121524 81 96 4.0 6.0 0.00 0.55 0.01 52 1021.8
20180919121024 81 37 2.0 8.0 0.00 0.55 0.01 53 1021.8
20180919120535 81 62 4.0 8.0 0.00 0.55 0.01 53 1021.9
20180919120050 81 53 3.0 8.0 0.00 0.55 0.01 54 1021.9
20180919115535 80 76 3.0 7.0 0.00 0.55 0.01 55 1022.0
20180919115021 80 40 3.0 7.0 0.00 0.55 0.01 55 1022.2
20180919114524 79 49 4.0 7.0 0.00 0.55 0.01 55 1022.2
20180919114029 79 46 5.0 7.0 0.00 0.55 0.01 57 1022.2
20180919113517 79 56 3.0 7.0 0.00 0.55 0.01 58 1022.2
20180919113023 79 72 5.0 7.0 0.00 0.55 0.01 58 1022.3
20180919112528 78 65 6.0 7.0 0.00 0.55 0.01 59 1022.3
20180919112032 78 63 5.0 7.0 0.00 0.55 0.01 58 1022.3
20180919111526 78 73 4.0 7.0 0.00 0.55 0.01 58 1022.3
20180919111028 78 56 5.0 7.0 0.00 0.55 0.01 55 1022.4
20180919110516 78 56 4.0 6.0 0.00 0.55 0.01 60 1022.5
20180919110054 77 110 1.0 6.0 0.00 0.55 0.01 61 1022.5
20180919105535 77 66 4.0 6.0 0.00 0.55 0.01 62 1022.6
20180919105018 77 66 2.0 5.0 0.00 0.55 0.01 62 1022.7
20180919104529 76 71 4.0 7.0 0.00 0.55 0.01 63 1022.6
20180919104027 77 70 4.0 7.0 0.00 0.55 0.01 64 1022.7
20180919103534 76 52 3.0 6.0 0.00 0.55 0.01 64 1022.7
20180919103035 76 68 4.0 6.0 0.00 0.55 0.01 63 1022.7
20180919102521 76 65 3.0 5.0 0.00 0.55 0.01 66 1022.7
20180919102016 74 48 3.0 6.0 0.00 0.55 0.01 69 1022.7
20180919101523 74 62 3.0 6.0 0.00 0.55 0.01 68 1022.7
20180919101027 74 86 1.0 5.0 0.00 0.55 0.01 69 1022.7
20180919100531 73 105 2.0 6.0 0.00 0.55 0.01 71 1022.7
20180919100051 73 60 2.0 5.0 0.00 0.55 0.01 72 1022.8
20180919095516 73 65 4.0 5.0 0.00 0.55 0.01 72 1022.8
20180919095023 73 60 4.0 5.0 0.00 0.55 0.01 71 1022.8
20180919094525 72 44 3.0 5.0 0.00 0.55 0.01 73 1022.8
20180919094028 73 56 3.0 5.0 0.00 0.55 0.01 72 1022.7
20180919093533 73 37 2.0 4.0 0.00 0.55 0.01 74 1022.6
20180919093034 72 76 1.0 4.0 0.00 0.55 0.01 76 1022.5
20180919092523 72 27 1.0 4.0 0.00 0.55 0.01 75 1022.5
20180919092024 71 46 2.0 3.0 0.00 0.55 0.01 76 1022.4
20180919091527 71 51 2.0 3.0 0.00 0.55 0.01 75 1022.4
20180919091027 71 58 2.0 3.0 0.00 0.55 0.01 77 1022.4
20180919090534 71 42 1.0 3.0 0.00 0.55 0.01 77 1022.4
20180919090054 71 56 2.0 3.0 0.00 0.55 0.01 76 1022.4
20180919085533 70 346 1.0 2.0 0.00 0.55 0.01 79 1022.3
20180919085016 70 63 1.0 2.0 0.00 0.55 0.01 78 1022.4
20180919084524 69 60 1.0 3.0 0.00 0.55 0.01 79 1022.3
20180919084020 69 79 1.0 2.0 0.00 0.55 0.01 80 1022.3
20180919083528 68 61 0.0 2.0 0.00 0.55 0.01 82 1022.3
20180919083029 67 72 0.0 2.0 0.00 0.55 0.01 84 1022.1
20180919082533 67 60 1.0 2.0 0.00 0.55 0.01 84 1022.1
20180919082017 66 70 1.0 3.0 0.00 0.55 0.01 85 1022.0
20180919081528 66 49 2.0 3.0 0.00 0.55 0.01 86 1022.0
20180919081029 65 61 2.0 3.0 0.00 0.55 0.01 86 1021.9
20180919080535 65 70 2.0 4.0 0.00 0.55 0.01 86 1021.9
20180919080054 65 75 2.0 3.0 0.00 0.55 0.01 87 1021.9
20180919075517 65 47 0.0 3.0 0.00 0.55 0.01 88 1021.8
20180919075017 64 75 2.0 3.0 0.00 0.55 0.01 88 1021.7
20180919074525 64 61 2.0 3.0 0.00 0.55 0.01 88 1021.7
20180919074033 63 56 3.0 3.0 0.00 0.55 0.01 89 1021.6
20180919073520 63 56 2.0 3.0 0.00 0.55 0.01 89 1021.5
20180919073021 63 56 1.0 3.0 0.00 0.55 0.01 89 1021.6
20180919072529 63 69 1.0 3.0 0.00 0.55 0.01 89 1021.5
20180919072034 62 87 2.0 3.0 0.00 0.55 0.01 90 1021.4
20180919071521 62 64 1.0 4.0 0.00 0.55 0.01 91 1021.4
20180919071024 62 93 2.0 6.0 0.00 0.55 0.01 91 1021.4
20180919070533 61 75 5.0 6.0 0.04 0.55 0.01 91 1021.4
20180919070046 61 81 4.0 5.0 0.04 0.55 0.01 91 1021.3
20180919065533 61 76 3.0 4.0 0.04 0.55 0.01 91 1021.3
20180919065034 61 77 1.0 4.0 0.04 0.55 0.01 92 1021.3
20180919064522 60 66 1.0 5.0 0.04 0.55 0.01 92 1021.2
20180919064023 60 60 3.0 5.0 0.04 0.55 0.01 92 1021.1
20180919063534 60 76 3.0 5.0 0.04 0.55 0.01 92 1021.1
20180919063034 60 95 1.0 5.0 0.04 0.55 0.01 92 1021.0
20180919062518 60 66 1.0 5.0 0.04 0.55 0.01 92 1020.9
20180919062022 60 61 2.0 5.0 0.04 0.55 0.01 93 1020.9
20180919061531 60 69 3.0 4.0 0.04 0.55 0.01 93 1020.9
20180919061016 60 85 2.0 4.0 0.04 0.55 0.01 93 1020.8
20180919060520 60 76 1.0 3.0 0.00 0.51 0.00 93 1020.7
20180919060044 60 49 3.0 4.0 0.00 0.51 0.00 93 1020.8
20180919055527 60 75 1.0 2.0 0.00 0.51 0.00 92 1020.7
20180919055025 60 65 1.0 2.0 0.00 0.51 0.00 92 1020.6
20180919054533 61 68 0.0 2.0 0.00 0.51 0.00 92 1020.6
20180919054019 61 60 1.0 2.0 0.00 0.51 0.00 92 1020.5
20180919053529 61 56 1.0 3.0 0.00 0.51 0.00 92 1020.5
20180919053026 61 74 2.0 3.0 0.00 0.51 0.00 91 1020.3
20180919052517 62 65 1.0 2.0 0.00 0.51 0.00 91 1020.1
20180919052019 62 69 1.0 1.0 0.00 0.51 0.00 91 1020.1
20180919051524 62 76 0.0 1.0 0.00 0.51 0.00 91 1020.1
20180919051022 62 79 0.0 1.0 0.00 0.51 0.00 91 1020.1
20180919050529 62 83 0.0 1.0 0.00 0.51 0.00 91 1020.1
20180919050043 62 83 0.0 1.0 0.00 0.51 0.00 91 1020.1
20180919045527 62 82 0.0 1.0 0.00 0.51 0.00 92 1020.1
20180919045033 62 80 0.0 1.0 0.00 0.51 0.00 93 1020.1
20180919044522 62 64 0.0 1.0 0.00 0.51 0.00 92 1020.1
20180919044022 62 63 0.0 1.0 0.00 0.51 0.00 92 1020.2
20180919043531 62 79 0.0 1.0 0.00 0.51 0.00 92 1020.1
20180919043033 62 76 0.0 1.0 0.00 0.51 0.00 93 1020.1
20180919042521 62 76 0.0 2.0 0.00 0.51 0.00 93 1020.1
20180919042023 62 79 1.0 3.0 0.00 0.51 0.00 93 1020.1
20180919041532 62 78 1.0 3.0 0.00 0.51 0.00 93 1020.0
20180919041017 62 61 2.0 3.0 0.00 0.51 0.00 93 1019.9
20180919040522 61 51 0.0 1.0 0.00 0.51 0.00 93 1019.8
20180919040040 61 37 0.0 1.0 0.00 0.51 0.00 93 1019.9
20180919035524 61 354 0.0 1.0 0.00 0.51 0.00 93 1019.9
20180919035023 61 277 0.0 1.0 0.00 0.51 0.00 92 1019.9
20180919034530 61 274 0.0 1.0 0.00 0.51 0.00 92 1019.9
20180919034030 62 251 0.0 1.0 0.00 0.51 0.00 92 1019.7
20180919033515 62 250 0.0 1.0 0.00 0.51 0.00 93 1019.6
20180919033019 62 256 0.0 1.0 0.00 0.51 0.00 93 1019.6
20180919032526 62 260 0.0 0.0 0.00 0.51 0.00 93 1019.7
20180919032029 62 260 0.0 1.0 0.00 0.51 0.00 93 1019.8
20180919031534 62 261 0.0 2.0 0.00 0.51 0.00 93 1019.7
20180919031033 62 256 1.0 2.0 0.00 0.51 0.00 93 1019.8
20180919030526 62 281 0.0 2.0 0.00 0.51 0.00 93 1019.8
20180919030046 62 261 0.0 2.0 0.00 0.51 0.00 93 1019.8
20180919025531 62 257 1.0 2.0 0.00 0.51 0.00 93 1019.7
20180919025035 62 266 0.0 1.0 0.00 0.51 0.00 92 1019.8
20180919024524 62 276 0.0 0.0 0.00 0.51 0.00 92 1019.8
20180919024023 62 276 0.0 0.0 0.00 0.51 0.00 93 1019.8
20180919023532 62 6 0.0 0.0 0.00 0.51 0.00 92 1019.8
20180919023035 63 336 0.0 0.0 0.00 0.51 0.00 92 1019.8
20180919022519 63 281 0.0 0.0 0.00 0.51 0.00 92 1019.8
20180919022022 63 281 0.0 1.0 0.00 0.51 0.00 92 1019.7
20180919021531 63 281 0.0 1.0 0.00 0.51 0.00 93 1019.7
20180919021030 63 304 0.0 1.0 0.00 0.51 0.00 93 1019.7
20180919020519 63 305 0.0 0.0 0.00 0.51 0.00 92 1019.9
20180919020059 63 305 0.0 2.0 0.00 0.51 0.00 91 1019.9
20180919015526 63 304 0.0 1.0 0.00 0.51 0.00 90 1019.9
20180919015026 64 241 0.0 2.0 0.00 0.51 0.00 90 1019.9
20180919014532 64 240 0.0 2.0 0.00 0.51 0.00 90 1019.9
20180919014035 64 260 0.0 2.0 0.00 0.51 0.00 91 1019.9
20180919013520 64 249 0.0 3.0 0.00 0.51 0.00 92 1020.0
20180919013025 63 235 2.0 4.0 0.00 0.51 0.00 91 1019.9
20180919012532 64 267 1.0 3.0 0.00 0.51 0.00 92 1020.0
20180919012017 64 50 0.0 3.0 0.00 0.51 0.00 90 1020.1
20180919011519 64 284 2.0 3.0 0.00 0.51 0.00 89 1020.0
20180919011024 65 335 0.0 1.0 0.00 0.51 0.00 87 1020.1
20180919010534 66 259 0.0 1.0 0.00 0.51 0.00 87 1019.9
20180919010052 66 155 0.0 2.0 0.00 0.51 0.00 87 1020.0
20180919005517 66 235 0.0 2.0 0.00 0.51 0.00 87 1019.9
20180919005022 66 161 0.0 3.0 0.00 0.51 0.00 87 1019.9
20180919004531 66 153 1.0 2.0 0.00 0.51 0.00 87 1019.9
20180919004024 66 207 0.0 3.0 0.00 0.51 0.00 87 1019.9
20180919003536 66 159 2.0 3.0 0.00 0.51 0.00 87 1019.9
20180919003022 66 97 0.0 1.0 0.00 0.51 0.00 89 1020.0
20180919002528 66 96 0.0 1.0 0.00 0.51 0.00 89 1020.0
20180919002032 66 8 0.0 1.0 0.00 0.51 0.00 88 1020.1
20180919001517 66 252 0.0 0.0 0.00 0.51 0.00 87 1020.2
20180919001021 66 251 0.0 0.0 0.00 0.51 0.00 86 1020.2
20180919000527 67 252 0.0 0.0 0.00 0.51 0.00 86 1020.2
20180919000050 67 52 0.0 0.0 0.00 0.51 0.00 85 1020.3
20180918235525 67 121 0.0 3.0 0.00 0.51 0.00 84 1020.1
20180918235030 67 126 1.0 3.0 0.00 0.51 0.00 84 1020.1
20180918234520 67 19 0.0 1.0 0.00 0.51 0.00 83 1020.0
20180918234023 68 19 0.0 1.0 0.00 0.51 0.00 82 1019.9
20180918233535 68 81 0.0 0.0 0.00 0.51 0.00 81 1020.1
20180918233027 67 81 0.0 0.0 0.00 0.51 0.00 84 1020.1
20180918232517 67 81 0.0 2.0 0.00 0.51 0.00 86 1020.1
20180918232020 67 79 1.0 3.0 0.00 0.51 0.00 87 1020.2
20180918231527 67 273 0.0 1.0 0.00 0.51 0.00 86 1020.1
20180918231031 67 280 0.0 1.0 0.00 0.51 0.00 87 1020.1
20180918230517 68 284 0.0 2.0 0.00 0.51 0.00 86 1020.1
20180918230054 68 11 1.0 2.0 0.00 0.51 0.00 85 1020.3
20180918225517 68 122 0.0 2.0 0.00 0.51 0.00 84 1020.0
20180918225022 68 115 0.0 0.0 0.00 0.51 0.00 83 1020.1
20180918224527 68 120 0.0 0.0 0.00 0.51 0.00 84 1020.0
20180918224028 68 148 0.0 2.0 0.00 0.51 0.00 84 1020.1
20180918223532 68 77 0.0 4.0 0.00 0.51 0.00 85 1020.2
20180918223035 68 101 1.0 4.0 0.00 0.51 0.00 84 1020.1
20180918222521 68 52 0.0 1.0 0.00 0.51 0.00 82 1020.1
20180918222023 68 219 0.0 2.0 0.00 0.51 0.00 82 1020.0
20180918221533 68 243 1.0 4.0 0.00 0.51 0.00 83 1020.0
20180918221017 68 222 2.0 4.0 0.00 0.51 0.00 83 1019.9